Blythe, CA

5:23 AM PDT on July 25, 2017 (GMT -0700)
Blythe

Weather History for KBLH - September, 2011

Change the Weather History Date:

Sunday, September 11, 2011

  Actual Average Record
Temperature  
Mean Temperature 88 °F -  
Max Temperature 100 °F 101 °F 111 °F (1971)
Min Temperature 75 °F 75 °F 62 °F (1986)
Cooling Degree Days 22    
Growing Degree Days 38 (Base 50)    
Moisture  
Dew Point 49 °F    
Average Humidity 26    
Maximum Humidity 48    
Minimum Humidity 17    
Precipitation  
Precipitation 0.00 in - - ()
Sea Level Pressure  
Sea Level Pressure 29.83 in    
Wind  
Wind Speed 7 mph (SSE)    
Max Wind Speed 16 mph    
Max Gust Speed 22 mph    
Visibility 10 miles    
Events      
Averages and records for this station are not official NWS values.
T = Trace of Precipitation, MM = Missing Value Source: NWS Daily Summary

Daily Weather History Graph

Daily Weather History Graph

Search for Another Location

Airport or City:

Trip Planner

Search our weather history database for the weather conditions in past years. The results will help you decide how hot, cold, wet, or windy it might be!

Date:

Astronomy

Sep. 11, 2011 Rise Set
Actual Time 6:19 AM PDT 6:51 PM PDT
Civil Twilight 5:54 AM PDT 7:16 PM PDT
Nautical Twilight 5:24 AM PDT 7:45 PM PDT
Astronomical Twilight 4:54 AM PDT 8:15 PM PDT
Moon 6:17 PM PDT (9/11) 5:41 AM PDT (9/11)
Length of Visible Light 13h 21m
Length of Day
12h 31m
Full, 100% of the Moon is Illuminated
Sep 11
Full
Sep 12
Full
Sep 20
Last Quarter
Sep 27
New
Oct 3
First Quarter

Hourly Weather History & Observations

Time (PDT) Temp. Heat Index Dew Point Humidity Pressure Visibility Wind Dir Wind Speed Gust Speed Precip Events Conditions
12:52 AM 84.0 °F - 43.0 °F 24% 29.78 in 10.0 mi SSE 4.6 mph - N/A   Clear
1:52 AM 79.0 °F - 42.1 °F 27% 29.79 in 10.0 mi NNE 5.8 mph - N/A   Clear
2:52 AM 77.0 °F - 41.0 °F 28% 29.79 in 10.0 mi NNW 5.8 mph - N/A   Clear
3:52 AM 80.1 °F - 43.0 °F 27% 29.81 in 10.0 mi ENE 4.6 mph - N/A   Clear
4:52 AM 77.0 °F - 45.0 °F 32% 29.82 in 10.0 mi North 3.5 mph - N/A   Clear
6:52 AM 75.9 °F - 55.0 °F 48% 29.85 in 10.0 mi NE 5.8 mph - N/A   Clear
7:52 AM 82.9 °F 82.1 °F 55.9 °F 39% 29.87 in 10.0 mi North 5.8 mph - N/A   Clear
8:52 AM 87.1 °F 85.7 °F 55.9 °F 35% 29.89 in 10.0 mi ENE 8.1 mph - N/A   Clear
9:52 AM 90.0 °F 88.6 °F 57.0 °F 33% 29.90 in 10.0 mi ESE 6.9 mph - N/A   Clear
10:52 AM 93.0 °F 91.7 °F 57.0 °F 30% 29.89 in 10.0 mi SSE 11.5 mph 20.7 mph N/A   Clear
12:52 PM 97.0 °F 96.1 °F 57.9 °F 27% 29.86 in 10.0 mi SE 13.8 mph 20.7 mph N/A   Clear
1:52 PM 99.0 °F - 51.1 °F 20% 29.83 in 10.0 mi South 11.5 mph - N/A   Clear
2:52 PM 100.0 °F - 48.0 °F 17% 29.81 in 10.0 mi SSE 16.1 mph 21.9 mph N/A   Clear
3:52 PM 100.0 °F - 48.9 °F 18% 29.78 in 10.0 mi South 15.0 mph - N/A   Clear
4:52 PM 100.0 °F - 48.9 °F 18% 29.78 in 10.0 mi South 16.1 mph - N/A   Clear
6:52 PM 95.0 °F - 46.9 °F 19% 29.79 in 10.0 mi South 9.2 mph - N/A   Clear
7:52 PM 91.9 °F - 46.0 °F 21% 29.81 in 10.0 mi South 9.2 mph - N/A   Clear
8:52 PM 90.0 °F - 45.0 °F 21% 29.84 in 10.0 mi South 8.1 mph - N/A   Clear
9:52 PM 91.0 °F - 43.0 °F 19% 29.86 in 10.0 mi SSW 11.5 mph - N/A   Clear
10:52 PM 90.0 °F - 44.1 °F 20% 29.88 in 10.0 mi WSW 5.8 mph - N/A   Clear
11:52 PM 87.1 °F - 48.0 °F 26% 29.89 in 10.0 mi South 5.8 mph - N/A   Clear